Weather History for LQBK - December, 2017

Change the Weather History Date:

Thursday, December 7, 2017

  Actual Average Record
Temperature  
Mean Temperature 36 °F -  
Max Temperature 50 °F - - ()
Min Temperature 23 °F - - ()
Degree Days  
Heating Degree Days 28    
Moisture  
Dew Point 30 °F    
Average Humidity 83    
Maximum Humidity 100    
Minimum Humidity 58    
Precipitation  
Precipitation 0.00 in - - ()
Sea Level Pressure  
Sea Level Pressure 30.33 in    
Wind  
Wind Speed 3 mph ()    
Max Wind Speed 9 mph    
Max Gust Speed -    
Visibility 4.9 miles    
Events      
T = Trace of Precipitation, MM = Missing Value Source: Averaged Metar Reports

Daily Weather History Graph

Daily Weather History Graph

Search for Another Location

Airport or City:

Trip Planner

Search our weather history database for the weather conditions in past years. The results will help you decide how hot, cold, wet, or windy it might be!

Date:

Astronomy

Dec. 07, 2017 Rise Set
Actual Time 7:14 AM CET 4:10 PM CET
Civil Twilight 6:41 AM CET 4:43 PM CET
Nautical Twilight 6:04 AM CET 5:20 PM CET
Astronomical Twilight 5:29 AM CET 5:55 PM CET
Moon 8:41 PM CET (12/7) 10:37 AM CET (12/7)
Length of Visible Light 10h 02m
Length of Day
8h 55m
Waning Gibbous, 80% of the Moon is Illuminated
Dec 7
Waning Gibbous
Dec 10
Last Quarter
Dec 18
New
Dec 26
First Quarter
Jan 2
Full

Hourly Weather History & Observations

Time (CET) Temp. Windchill Dew Point Humidity Pressure Visibility Wind Dir Wind Speed Gust Speed Precip Events Conditions
12:00 AM 28.4 °F 24.6 °F 26.6 °F 93% 30.39 in - SSE 3.5 mph - N/A   Clear
12:30 AM 28.4 °F 24.6 °F 26.6 °F 93% 30.39 in - SSE 3.5 mph - N/A   Clear
1:00 AM 26.6 °F 22.6 °F 24.8 °F 93% 30.39 in - South 3.5 mph - N/A   Clear
1:30 AM 26.6 °F - 24.8 °F 93% 30.39 in - Variable 2.3 mph - N/A   Clear
2:00 AM 24.8 °F - 24.8 °F 100% 30.39 in - Variable 2.3 mph - N/A   Clear
2:30 AM 26.6 °F - 24.8 °F 93% 30.39 in - Variable 2.3 mph - N/A   Clear
3:00 AM 24.8 °F - 23.0 °F 93% 30.39 in - Variable 2.3 mph - N/A   Clear
3:30 AM 26.6 °F - 24.8 °F 93% 30.39 in - Variable 2.3 mph - N/A   Clear
4:00 AM 24.8 °F - 24.8 °F 100% 30.39 in - Variable 2.3 mph - N/A   Clear
4:30 AM 24.8 °F - 24.8 °F 100% 30.39 in - Variable 2.3 mph - N/A   Clear
5:00 AM 32.0 °F - 23.0 °F 69% 30.36 in - Variable 2.3 mph - N/A   Clear
5:30 AM - - - N/A% - - Variable 2.3 mph - N/A   Clear
6:00 AM 23.0 °F - 23.0 °F 100% 30.36 in - Variable 2.3 mph - N/A   Clear
6:30 AM 24.8 °F 20.5 °F 24.8 °F 100% 30.39 in - South 3.5 mph - N/A   Clear
7:00 AM 24.8 °F 20.5 °F 23.0 °F 93% 30.39 in - South 3.5 mph - N/A   Clear
7:30 AM 24.8 °F - 23.0 °F 93% 30.39 in - Variable 1.2 mph - N/A   Clear
8:00 AM 26.6 °F - 24.8 °F 93% 30.39 in - NNW 2.3 mph - N/A   Clear
8:30 AM 28.4 °F - 26.6 °F 93% 30.39 in - NNW 2.3 mph - N/A   Clear
9:00 AM 30.2 °F - 26.6 °F 86% 30.39 in - Variable 1.2 mph - N/A   Clear
9:30 AM 32.0 °F - 28.4 °F 87% 30.39 in - Variable 1.2 mph - N/A   Clear
10:00 AM 33.8 °F - 30.2 °F 87% 30.39 in - NNE 2.3 mph - N/A   Clear
10:30 AM 35.6 °F - 30.2 °F 81% 30.36 in 4.3 mi NNW 2.3 mph - N/A   Unknown
11:00 AM 37.4 °F - 32.0 °F 81% 30.36 in 5.0 mi NW 2.3 mph - N/A   Unknown
11:30 AM 41.0 °F - 33.8 °F 76% 30.36 in 5.0 mi NW 2.3 mph - N/A   Unknown
12:00 PM 42.8 °F - 33.8 °F 70% 30.33 in 5.0 mi Variable 2.3 mph - N/A   Unknown
12:30 PM 44.6 °F - 35.6 °F 71% 30.33 in 5.0 mi NNW 2.3 mph - N/A   Unknown
1:00 PM 46.4 °F - 35.6 °F 66% 30.30 in - North 2.3 mph - N/A   Clear
1:30 PM 46.4 °F - 35.6 °F 66% 30.30 in - North 2.3 mph - N/A   Clear
2:00 PM 46.4 °F - 35.6 °F 66% 30.30 in - North 2.3 mph - N/A   Clear
2:30 PM 50.0 °F - 35.6 °F 58% 30.30 in - North 2.3 mph - N/A   Clear
3:00 PM 50.0 °F - 35.6 °F 58% 30.27 in - Variable 1.2 mph - N/A   Clear
3:30 PM 50.0 °F - 35.6 °F 58% 30.27 in - Variable 1.2 mph - N/A   Clear
4:00 PM 42.8 °F - 35.6 °F 76% 30.27 in - South 2.3 mph - N/A   Clear
4:30 PM 39.2 °F - 33.8 °F 81% 30.27 in - SSW 2.3 mph - N/A   Clear
5:00 PM 39.2 °F - 32.0 °F 75% 30.27 in - Variable 1.2 mph - N/A   Clear
5:30 PM 35.6 °F - 32.0 °F 87% 30.27 in - South 2.3 mph - N/A   Clear
6:00 PM 35.6 °F 30.7 °F 32.0 °F 87% 30.27 in - SW 5.8 mph - N/A   Clear
6:30 PM 41.0 °F 35.8 °F 33.8 °F 76% 30.30 in - WSW 8.1 mph - N/A   Clear
7:00 PM 46.4 °F 42.4 °F 33.8 °F 62% 30.30 in - WSW 8.1 mph - N/A   Clear
7:30 PM 41.0 °F 38.0 °F 32.0 °F 70% 30.27 in - WSW 4.6 mph - N/A   Clear
8:00 PM 37.4 °F 33.8 °F 32.0 °F 81% 30.27 in - South 4.6 mph - N/A   Clear
8:30 PM 35.6 °F 31.7 °F 30.2 °F 81% 30.27 in - SSE 4.6 mph - N/A   Clear
9:00 PM 33.8 °F 29.6 °F 30.2 °F 87% 30.27 in - South 4.6 mph - N/A   Clear
9:30 PM 33.8 °F 29.6 °F 30.2 °F 87% 30.27 in - SSE 4.6 mph - N/A   Clear
10:00 PM 30.2 °F - 28.4 °F 93% 30.27 in - South 2.3 mph - N/A   Clear
10:30 PM 32.0 °F 25.6 °F 28.4 °F 87% 30.27 in - South 6.9 mph - N/A   Clear
11:00 PM 33.8 °F 26.4 °F 30.2 °F 87% 30.24 in - SSE 9.2 mph - N/A   Clear
11:30 PM 33.8 °F 27.7 °F 30.2 °F 87% 30.24 in - SSE 6.9 mph - N/A   Clear